Theta_e
291 285 283 286 288 289 288 286 285 287 287 285 285 285 288 291 288 288 292 294 295 294 296 296 295 295 293 293 291 289 288 288 288 287 286 285 285 285 285 286 287 287 287 291
287 282 288 290 289 287 287 284 284 287 285 283 283 284 287 289 290 289 290 292 295 295 294 294 294 294 292 291 290 289 289 288 288 288 287 287 285 285 285 286 286 287 287 288
284 285 287 287 285 284 284 283 282 282 284 282 279 279 282 286 289 291 292 293 294 296 293 293 293 292 292 290 289 289 288 288 288 288 288 287 286 285 283 284 284 286 287 287
284 286 284 282 282 284 279 283 284 283 279 275 280 272 280 284 286 287 290 291 292 294 295 294 292 291 290 290 290 289 288 288 288 288 286 285 283 282 283 284 284 285 286 286
280 280 278 281 280 284 280 282 281 280 278 277 276 273 279 281 282 285 288 289 290 292 293 293 292 291 291 290 288 288 288 287 287 287 286 285 284 284 285 284 283 284 284 285
278 281 280 280 280 281 283 279 279 277 276 269 276 276 276 281 282 285 287 288 289 288 290 293 293 291 290 290 288 288 287 286 287 286 286 285 284 284 283 283 282 282 283 283
278 277 279 281 278 280 279 277 274 270 267 269 276 275 279 284 287 285 286 287 286 287 288 291 290 289 290 289 288 287 286 285 286 285 285 285 285 284 283 283 282 282 281 282
275 273 276 279 277 277 277 277 275 268 271 273 274 273 278 284 287 284 283 282 285 284 287 289 290 289 289 289 287 287 286 285 285 285 285 285 285 285 284 284 283 283 282 283
276 274 276 277 278 277 276 273 278 274 269 268 273 277 282 283 283 284 284 282 283 283 285 288 289 290 289 288 287 287 285 285 285 285 285 285 285 284 284 284 284 284 284 284
278 272 275 274 276 276 275 278 274 273 263 264 274 274 275 279 282 282 283 283 283 284 283 285 289 289 289 289 288 287 286 285 285 285 285 285 285 285 284 284 283 284 284 284
279 277 272 274 272 273 273 274 275 276 274 269 268 273 281 282 282 280 281 283 283 282 284 284 287 288 289 288 288 287 286 285 284 285 285 284 284 284 284 284 284 284 283 283
281 280 270 272 273 274 273 275 277 273 269 272 272 273 284 284 283 282 281 284 283 282 283 284 285 286 287 287 287 286 286 285 285 285 285 284 284 284 283 283 283 283 282 282
279 276 271 271 271 272 269 275 277 278 275 269 267 273 282 281 282 283 282 283 283 282 282 284 284 285 286 286 286 286 286 285 285 285 284 284 283 283 283 283 283 282 282 281
283 274 272 271 271 272 267 270 275 272 267 271 274 276 280 283 283 285 285 284 283 282 283 282 283 284 285 285 285 285 285 286 285 284 284 283 283 283 283 283 283 282 281 280
280 272 270 271 275 273 271 269 271 269 273 268 274 274 279 281 282 284 285 285 284 282 282 281 282 283 283 283 284 285 285 285 285 284 283 283 283 283 283 282 282 281 281 280
277 275 269 267 276 275 271 271 271 275 274 273 274 274 281 282 283 283 284 284 282 282 282 281 281 282 282 283 284 283 284 284 284 283 282 282 282 282 282 281 281 281 280 280
275 276 273 267 275 273 267 273 273 275 274 275 272 278 284 283 283 283 285 284 282 282 282 281 281 281 282 282 283 283 282 283 282 282 282 282 282 281 281 281 281 280 279 279
275 274 276 271 270 264 273 275 277 277 278 280 280 281 283 282 284 284 284 280 279 278 278 280 281 281 281 281 281 282 282 283 282 281 281 281 281 280 280 280 279 278 277 275
281 277 274 271 267 272 276 276 272 271 273 279 279 282 281 279 278 278 276 275 276 276 277 277 279 280 280 281 281 280 280 280 280 280 280 280 280 279 278 277 275 274 273 273
277 280 275 273 268 263 271 274 278 276 269 277 280 279 279 277 272 276 271 273 273 274 275 275 276 277 277 277 279 279 277 276 275 276 277 277 277 276 274 274 273 272 271 270
271 273 272 272 271 270 276 276 277 268 273 277 280 279 278 277 276 271 273 271 272 272 272 272 272 272 273 274 274 271 271 270 272 272 273 273 273 273 272 272 271 270 269 268
270 270 270 271 270 268 277 276 275 277 276 277 277 278 277 277 273 272 271 270 270 269 269 270 268 268 270 271 270 268 267 269 270 270 270 270 271 271 271 269 269 269 268 266
271 274 273 273 272 276 278 279 279 277 277 278 278 278 277 277 274 272 269 268 266 266 268 267 266 265 265 266 268 267 267 268 268 268 268 268 269 269 270 268 268 268 268 267
273 276 274 276 275 277 275 278 279 279 279 280 279 277 276 275 274 271 268 267 267 266 265 265 264 263 263 265 266 266 267 267 267 266 266 267 267 267 268 269 268 268 267 266
275 276 274 273 277 278 279 278 282 282 282 281 279 277 276 275 273 271 269 268 267 266 266 265 263 263 263 264 264 266 266 266 265 265 266 266 266 266 266 267 267 267 268 268
274 272 271 271 277 277 278 278 278 278 279 279 278 274 275 274 271 270 268 267 266 264 264 263 263 262 263 263 264 264 266 266 265 264 264 264 264 265 265 266 267 272 271 271
Wind_Speed
7 5 13 17 14 14 12 14 13 9 4 5 10 15 15 12 10 11 13 13 15 17 14 15 13 13 12 12 14 13 12 11 8 5 5 4 4 4 4 4 6 5 3 3
4 12 12 10 8 6 10 13 14 9 5 4 8 15 15 14 15 17 18 16 17 14 17 17 18 17 17 15 15 15 14 13 9 6 5 4 5 3 4 4 4 5 4 3
10 2 4 3 3 4 9 8 8 10 3 6 6 11 12 14 23 18 16 17 18 21 22 22 22 21 17 18 17 16 15 14 10 8 5 5 4 4 3 4 3 3 4 3
8 2 3 3 4 6 7 5 9 7 2 5 5 11 7 10 14 13 20 18 18 17 17 18 20 20 19 16 15 15 14 14 10 8 7 9 5 6 4 4 4 4 4 5
6 5 4 6 4 6 4 2 3 2 5 7 4 6 6 4 7 11 16 14 14 17 17 20 21 20 19 16 15 14 14 14 12 9 9 8 6 4 5 6 8 5 4 5
2 1 2 1 2 3 2 2 1 2 2 5 10 10 2 6 5 5 4 10 11 11 12 17 16 17 17 15 15 15 15 15 13 12 10 10 9 8 8 6 5 5 4 4
4 5 3 1 4 0 2 3 1 2 1 10 1 8 14 12 13 6 6 6 7 8 9 12 16 18 17 19 18 16 18 16 14 14 11 11 8 9 10 9 5 6 4 3
7 5 8 6 1 6 8 4 5 7 5 3 2 8 8 8 10 6 4 2 6 4 9 11 16 18 18 19 19 19 18 17 15 14 11 9 8 7 6 7 6 5 5 5
6 2 3 5 4 3 6 5 1 2 2 3 6 8 8 9 7 5 6 3 6 6 5 8 10 16 17 18 19 19 18 16 16 16 12 10 8 9 8 9 7 6 6 6
1 4 2 2 2 2 1 3 4 1 2 5 6 6 8 5 6 6 8 7 8 4 5 4 8 11 13 15 15 16 17 17 17 15 13 11 9 10 8 9 9 8 8 9
2 3 2 1 7 8 3 3 3 1 3 5 2 7 4 6 5 2 3 3 4 5 6 7 7 9 12 13 15 16 16 16 16 15 13 12 10 10 8 9 8 8 8 10
5 4 5 6 4 3 2 4 6 5 6 4 3 11 5 6 6 5 4 6 4 2 3 5 6 8 12 15 15 16 16 16 16 15 14 13 11 10 8 10 8 8 9 8
6 4 3 1 3 4 4 6 4 2 3 7 4 8 2 4 4 5 5 6 4 4 5 6 7 8 10 13 14 15 15 15 15 15 14 13 12 12 10 10 9 8 9 8
6 2 7 7 4 4 3 3 6 5 4 0 18 19 17 17 16 14 12 9 7 6 6 6 7 8 9 11 13 15 14 14 15 15 15 15 14 13 11 10 10 9 9 9
2 4 1 3 3 5 8 6 8 9 14 8 13 16 19 9 17 21 18 21 17 7 7 9 8 8 8 9 12 13 14 14 15 15 15 14 13 13 11 10 10 9 9 8
3 2 3 5 5 7 9 10 12 18 15 18 16 31 30 19 18 19 15 11 9 8 8 9 10 9 10 11 13 12 14 14 15 15 14 13 13 12 12 11 12 11 9 9
4 5 3 5 2 1 11 20 21 14 10 13 15 30 23 20 12 11 13 10 7 8 7 8 10 11 9 11 11 13 12 11 13 13 12 13 13 13 12 12 12 12 11 11
5 4 5 2 1 6 7 0 11 21 18 17 18 23 25 16 13 15 10 7 8 10 11 10 8 7 8 7 7 8 10 14 13 13 13 13 13 13 13 13 12 12 12 11
10 8 4 5 6 10 12 6 8 10 11 16 17 20 12 6 4 3 6 6 6 7 9 8 9 3 7 7 7 9 8 8 10 9 10 11 14 14 14 14 14 12 13 11
5 12 8 5 6 9 5 2 9 7 7 4 9 9 6 2 2 5 3 5 7 7 7 9 11 12 12 9 8 10 8 9 9 9 10 11 13 14 15 14 14 12 13 12
4 3 15 15 8 8 6 7 4 8 9 2 4 4 1 2 5 3 4 5 5 6 7 9 12 11 10 10 14 14 13 13 10 12 14 14 13 15 15 15 12 13 13 13
10 11 7 6 7 15 5 4 7 7 2 4 2 3 2 3 4 4 6 5 6 6 7 9 9 9 8 8 13 13 14 10 12 14 15 14 13 11 12 16 13 13 13 13
5 7 7 11 8 4 4 2 2 4 4 3 3 2 2 4 5 6 5 6 5 5 7 7 7 9 8 6 9 15 11 13 15 16 16 15 15 13 12 14 13 11 11 10
3 1 5 2 8 10 4 5 4 2 3 3 4 2 0 2 6 6 7 6 5 5 6 6 8 9 9 8 10 12 12 14 16 18 16 14 15 14 12 10 9 9 9 8
5 5 5 6 10 9 10 3 7 7 7 7 4 3 3 3 5 7 7 7 7 8 7 7 9 9 10 10 11 10 11 13 17 16 15 14 12 14 13 12 10 10 9 9
12 13 10 11 10 4 6 1 5 6 5 7 6 3 4 7 9 10 9 8 8 9 9 9 10 11 10 11 11 10 10 12 15 16 11 10 10 11 11 11 12 23 21 21
Wind_Direction
203 208 208 218 219 246 269 289 288 289 181 171 231 251 258 257 206 222 222 228 209 205 194 188 184 177 168 171 168 167 168 160 154 156 148 146 153 138 115 112 127 118 115 118
133 239 245 243 251 271 251 257 267 287 127 185 265 264 261 253 243 214 216 213 217 201 193 188 186 184 182 176 171 169 173 165 167 160 164 151 141 143 136 129 113 110 114 120
207 127 49 198 225 257 258 259 269 264 302 215 286 277 249 243 247 245 219 216 214 206 195 192 191 187 181 182 176 173 172 169 171 168 149 124 105 90 105 126 115 130 121 103
239 237 172 160 228 213 256 336 254 254 315 249 105 288 260 285 276 223 231 215 217 210 202 198 193 191 186 182 175 172 173 170 175 160 147 156 150 158 165 147 138 137 142 118
216 149 182 207 203 192 208 345 10 343 250 296 241 263 263 176 270 248 222 220 215 211 196 197 194 189 184 181 177 174 171 170 173 159 160 156 156 165 136 128 132 140 136 121
61 51 312 109 72 15 127 155 183 177 191 271 206 215 265 219 244 304 278 220 219 202 198 196 190 179 183 177 174 175 173 175 173 163 166 172 167 155 138 137 144 146 142 131
150 198 115 185 119 175 228 167 216 308 13 236 153 217 239 300 295 280 307 333 340 195 192 181 174 181 182 181 178 177 174 177 174 170 172 177 170 149 145 150 151 149 145 142
172 249 159 173 226 183 188 193 177 218 208 284 24 243 250 230 262 44 24 244 299 232 195 186 179 184 186 183 180 178 177 175 173 171 175 175 162 149 148 152 149 150 148 149
168 163 68 20 342 61 177 206 36 14 130 38 229 272 312 239 292 325 331 354 305 290 274 198 178 185 184 181 183 181 176 176 175 175 172 172 160 151 155 157 152 153 150 147
298 104 351 71 291 95 37 301 127 270 216 254 249 246 230 230 105 46 25 19 357 305 267 217 182 178 181 181 180 182 181 180 176 173 172 171 164 156 154 156 155 159 153 143
113 104 124 122 208 171 160 208 206 23 193 199 301 261 247 128 128 32 32 18 341 326 213 218 187 163 173 175 180 183 182 180 175 172 171 168 168 162 157 160 157 157 141 145
203 154 163 197 69 27 350 221 173 151 240 235 164 260 252 206 143 159 225 232 211 260 215 203 186 163 171 177 182 184 182 182 179 172 169 171 164 161 156 159 157 149 145 144
187 219 130 330 356 2 222 195 235 325 72 219 142 258 334 89 344 316 210 215 210 182 190 184 183 180 182 180 183 185 184 183 175 171 168 166 166 166 165 160 155 146 143 146
132 248 177 192 164 121 174 223 213 150 177 225 234 272 279 294 308 312 335 346 332 207 201 214 200 194 181 177 184 183 183 181 173 170 170 169 168 168 164 156 152 144 143 141
108 230 164 303 195 180 190 176 199 200 229 217 276 275 274 277 303 297 301 294 298 294 223 216 213 199 190 177 180 185 180 176 171 170 171 171 163 161 154 149 144 137 134 131
345 252 52 305 248 243 247 215 214 228 223 244 261 271 262 277 265 279 282 294 297 284 265 225 222 205 191 187 185 178 180 172 169 171 171 164 159 154 153 148 143 137 132 127
172 169 129 262 170 334 291 222 214 225 200 217 232 252 287 284 280 292 303 309 317 305 309 277 225 207 190 183 178 179 168 157 166 164 161 158 155 152 148 142 138 136 131 123
181 173 161 242 32 235 256 154 202 216 240 230 250 263 265 280 290 285 327 342 355 358 343 315 268 209 188 166 167 152 154 161 161 159 156 153 149 142 137 133 128 115 113 112
201 176 196 213 201 301 297 200 159 165 257 229 230 252 278 281 329 323 22 27 8 347 338 333 345 48 89 112 130 120 120 127 134 144 142 141 138 132 128 119 117 114 109 104
209 207 199 174 220 221 250 350 132 114 297 227 175 233 263 72 26 263 13 20 13 3 357 14 16 40 49 34 62 86 76 83 80 97 101 104 111 113 111 113 109 106 103 104
166 211 213 215 232 276 204 170 119 99 235 205 118 116 61 209 198 173 103 68 53 24 30 30 43 47 40 57 81 77 78 73 78 84 86 87 92 100 104 104 105 108 106 101
170 174 199 220 231 249 162 40 177 210 10 131 161 138 178 205 165 115 101 81 62 51 43 46 55 50 39 63 91 92 88 93 90 89 88 89 92 97 101 104 103 104 107 104
206 205 184 198 204 234 234 236 229 127 171 195 131 191 201 231 183 155 121 91 70 62 68 63 77 71 48 49 96 106 107 106 102 96 94 96 97 97 99 104 106 103 102 105
232 207 220 138 266 257 216 288 303 184 226 207 182 261 189 270 149 128 126 127 112 99 92 90 84 80 74 69 85 95 108 110 106 103 101 99 96 95 91 90 89 93 95 98
270 345 335 290 299 326 292 220 203 263 301 324 7 164 223 160 147 138 135 129 120 113 103 98 98 94 90 91 89 93 101 109 105 103 103 100 94 93 91 84 85 87 81 90
267 258 257 267 268 240 267 171 168 161 217 241 231 199 180 160 148 132 128 124 122 113 109 104 103 102 96 91 88 89 99 105 107 102 95 94 96 96 94 95 93 85 87 84